www.pogodaiklimat.ru

Погода и климат >> Архив погоды >> Россия >> Калмыкия >> Малые Дербеты


ПОГОДА в Малых Дербетах

  • Прогноз погоды в Малых Дербетах
  • Монитор погоды в Малых Дербетах

АРХИВ ПОГОДЫ в Малых Дербетах

Время (UTC), дата Ветер
(напр.,м/с)
 
Видим.   Явления Облачность Т
(С)
Тd
(С)
f
(%)
Тe
(С)
Тes
(С)
Комфортность P
(гПа)
Po
(гПа)
Тmin
(С)
Tmax
(С)
R
(мм)
R24
(мм)
S
(см)
06 11.06 В 4 20 км ясно +29.4 +5.5 22 +28 +36 жарко 1018.2 1017.1
09 11.06 В 3 20 км 3/0
[Ci fib]
+33.3 -1.1 11 +30 +44 жарко 1016.9 1015.9
12 11.06 В 3 20 км 3/0
[Ci fib]
+35.3 +1.0 11 +32 +41 жарко 1014.9 1013.9
15 11.06 В 4
{11}
20 км 3/0
[Ci fib]
+34.9 +0.9 12 +32 +33 жарко 1014.0 1013.0 +35.9
18 11.06 В 3 20 км 1/0
[Ci fib]
+27.0 +1.2 19 +25 +25 комфорт 1014.7 1013.7
21 11.06 штиль 0 20 км 3/0
[Ci fib]
+21.8 +3.2 29 +22 +22 комфорт 1015.0 1013.9
00 12.06 СЗ 2 20 км ясно +18.6 +6.4 45 +19 +19 1014.8 1013.7
03 12.06 С 1 20 км 10/0
[Ci fib]
+21.3 +8.2 43 +22 +24 комфорт 1015.1 1014.0 +17.9
06 12.06 СВ 3 20 км 10/0
[Ci fib]
+32.1 +5.3 19 +30 +38 жарко 1014.6 1013.6
09 12.06 В 4 20 км 10/0
[Ci fib]
+35.5 +0.4 11 +32 +42 жарко 1013.4 1012.4
12 12.06 В 4 20 км 10/0
[Ci fib]
+36.7 -0.5 10 +33 +39 жарко 1011.8 1010.8
15 12.06 В 3 20 км 5/0
[Ci fib]
+36.2 +0.3 10 +32 +34 жарко 1010.7 1009.7 +37.3
18 12.06 В 2 20 км 3/0
[Ac lent]
+28.0 +0.6 17 +26 +26 жарко 1011.6 1010.6
21 12.06 ЮЗ 1 20 км ясно +25.6 +1.4 21 +24 +24 комфорт 1011.4 1010.4
00 13.06 З 1 20 км ясно +21.4 +2.9 30 +21 +21 комфорт 1011.7 1010.6
03 13.06 СЗ 1 20 км 3/0
[Ci fib]
+25.1 +4.4 26 +24 +27 комфорт 1011.5 1010.5 +18.7
06 13.06 С 2 20 км 1/0
[Ci fib]
+33.3 +6.2 19 +31 +43 жарко 1011.5 1010.5
09 13.06 СВ 3 20 км 8/4 600 м
[Cu med, cong Ci fib]
+38.5 -0.7 9 +35 +43 очень
жарко
1011.0 1010.0
12 13.06 С 5-10
{12}
20 км пыльный позёмок 4/3 600 м
[Cu med, cong Ci fib]
+36.2 +5.5 15 +34 +38 очень
жарко
1010.5 1009.5
15 13.06 С 7-13
{16}
10 км пыльный позёмок 10/0
[Cs]
+32.1 +10.0 26 +32 +32 жарко 1012.2 1011.2 +38.8
18 13.06 СВ 7-14
{17}
20 км пыльный позёмок 10/0
[Ci fib]
+25.0 +8.8 36 +26 +26 жарко 1015.8 1014.8
21 13.06 СВ 5-10
{14}
20 км пыльный позёмок 10/0
[Ci sp]
+20.2 +1.6 29 +20 +20 1019.1 1018.1
00 14.06 С 4
{10}
20 км 3/0
[Ac lent Ci fib]
+16.3 -0.1 33 +16 +16 1019.0 1017.9
03 14.06 СВ 5 20 км ясно +16.0 +0.8 36 +15 +16 1020.6 1019.5 +14.6
06 14.06 СВ 4 20 км ясно +21.4 -0.8 23 +21 +29 комфорт 1021.0 1019.9
09 14.06 СВ 5 20 км пыльный позёмок 1/0
[Ci fib]
+24.8 -3.3 15 +23 +32 комфорт 1020.2 1019.1
12 14.06 СВ 3
{10}
20 км ясно +27.3 -4.4 12 +24 +34 комфорт 1018.8 1017.7
15 14.06 СВ 2 20 км ясно +27.1 -5.6 11 +24 +26 комфорт 1017.7 1016.7 +28.0
18 14.06 СЗ 1 20 км ясно +20.3 0.0 26 +21 +21 комфорт 1018.1 1017.0
21 14.06 СЗ 1 20 км ясно +14.9 -1.4 33 +16 +16 1017.3 1016.2
00 15.06 З 1 н/о н/о +11.9 -2.0 38 +12 +12 1016.4 1015.3
03 15.06 ЮЗ 1 20 км ясно +18.8 -0.8 27 +20 +22 1016.2 1015.1 +10.3
06 15.06 ЮЗ 2 20 км ясно +28.0 -3.7 12 +25 +37 комфорт 1015.2 1014.2
09 15.06 ЮЗ 3 20 км ясно +31.9 -4.0 10 +28 +44 жарко 1013.6 1012.6
12 15.06 З 3 20 км ясно +34.0 -1.2 11 +30 +40 жарко 1011.5 1010.5
15 15.06 З 2 20 км ясно +33.3 +1.6 13 +30 +32 жарко 1010.2 1009.2 +34.4
18 15.06 З 2 20 км 3/3 600 м
[Cu med, cong]
+27.0 +6.3 27 +26 +26 жарко 1010.5 1009.5
21 15.06 СЗ 1 20 км ясно +24.0 +9.2 39 +25 +25 комфорт 1010.2 1009.2
00 16.06 штиль 0 20 км ясно +20.6 +10.2 51 +22 +22 комфорт 1009.9 1008.8
03 16.06 С 2 20 км 4/0
[Ci fib]
+23.2 +13.9 56 +27 +28 душно 1010.1 1009.0 +20.0
06 16.06 С 2 20 км 3/0
[Ci fib]
+30.0 +9.3 28 +30 +41 жарко 1010.1 1009.1
09 16.06 С 3 20 км 8/3 600 м
[Cu med, cong Ci fib]
+32.8 +10.7 26 +32 +42 жарко 1009.4 1008.4
12 16.06 Ю 4 20 км гроза без осадков 10/5 600 м
[Cb cap Ci sp]
+28.8 +10.7 32 +29 +32 жарко 1008.4 1007.4
15 16.06 С 6
{20}
20 км гроза без осадков {ливн. осадки} 10/4 600 м
[Cb cap Ci sp]
+24.0 +14.2 54 +26 +27 жарко 1008.4 1007.4 +34.3 0.5
18 16.06 С 2
{12}
20 км {гроза} 9/0
[Ac As]
+22.4 +17.2 72 +27 +27 душно 1009.2 1008.2
21 16.06 СЗ 5-10
{14}
4000 м гроза, ливневой дождь 9/4 600 м
[Cb cap Ac As]
+18.5 +16.5 88 +19 +19 1010.5 1009.4
00 17.06 С 1
{10}
20 км в посл. час гроза {ливн. осадки} 9/0
[Ac As]
+17.5 +15.4 87 +19 +19 1009.6 1008.5
03 17.06 С 2 20 км 9/0
[Ac trans]
+17.9 +15.9 88 +18 +19 1010.6 1009.5 +17.0 9
06 17.06 С 2 20 км 4/0
[Ac cast]
+24.5 +14.8 55 +27 +36 жарко 1011.2 1010.1
09 17.06 СЗ 5 20 км 4/3
[Cu med, cong Ac trans]
+26.8 +15.7 51 +30 +36 душно 1011.9 1010.8
12 17.06 С 3 20 км 3/3 600 м
[Cu med, cong Ci sp]
+28.5 +13.2 39 +30 +37 жарко 1011.3 1010.2
15 17.06 СЗ 4 20 км 3/3 600 м
[Cu med, cong]
+28.8 +10.3 32 +29 +30 жарко 1010.9 1009.8 +29.6
18 17.06 СЗ 2 20 км ясно +23.7 +13.0 51 +26 +26 жарко 1012.0 1010.9
21 17.06 СЗ 3 20 км ясно +21.1 +10.6 51 +23 +23 комфорт 1012.5 1011.4
00 18.06 СЗ 3 20 км ясно +19.5 +10.0 54 +21 +21 комфорт 1011.8 1010.7

 

Местоположение метеостанции Малые Дербеты (Калмыкия, Россия): широта 47.93 долгота 44.70 высота над уровнем моря 9 м.

В архиве по умолчанию представлена погода в Малых Дербетах за последнюю неделю. Архивные данные за месяц целиком и за предыдущие месяцы, начиная с января 2011 года, Вы можете получить, выбрав интересующий диапазон дат из раскрывающегося списка и нажав кнопку "Ввод!".


*Определитесь, кто Вы:
робот инопланетянин человек

Внимание! Время в таблицах - всемирное. Для получения местного времени необходимо прибавить поправку, которая равна 3 ч.

Смотрите также архив погоды в соседних городах и на ближайших метеорологических станциях:

Погода в Кетченерах (Калмыкия, Россия) (69 км)
Погода в Волгограде город (Волгоградская область, Россия) (84 км)
Погода в Волгограде (Волгоградская область, Россия) (98 км)
Погода в Черный Яр (Астраханская область, Россия) (107 км)
Погода в Котельниково (Волгоградская область, Россия) (121 км)
Погода в Калаче-на-Дону (Волгоградская область, Россия) (123 км)
Погода в Нижнем Чире (Волгоградская область, Россия) (125 км)
Погода в Юсте (Калмыкия, Россия) (151 км)
Погода в Верхнем Баскунчаке (Астраханская область, Россия) (154 км)
Погода в Иловле (Волгоградская область, Россия) (161 км)

Пояснения к столбцам:

Ветер - указаны скорость ветра в м/с - средняя за 10 мин, порывы в срок и между сроками (в фигурных скобках) и направление, откуда дует ветер: С - северный, СВ - северо-восточный, В - восточный, ЮВ - юго-восточный, Ю - южный, ЮЗ - юго-западный, З - западный, СЗ - северо-западный.
Видимость - горизонтальная дальность видимости в метрах или километрах. При видимости от 1 до 10 км при отсутствии осадков обычно наблюдается дымка, при ухудшении видимости до 1 км и менее - туман. В сухую погоду видимость может ухудшаться дымом, пылью или мглою.
Явления - указаны атмосферные явления, наблюдавшиеся в срок или в последний час перед сроком; фигурными скобками обозначены явления, наблюдавшиеся между сроками (за 1-3 часа до срока); квадратными скобками обозначены град или гололедные отложения с указанием их диаметра в мм.
Облачность - указаны через наклонную черту общая и нижняя облачность в баллах и высота нижней границы облаков в метрах; квадратными скобками обозначены формы облаков: Ci - перистые, Cs - перисто-слоистые, Cc - перисто-кучевые, Ac - высококучевые, As - высокослоистые, Sc - слоисто-кучевые, Ns - слоисто-дождевые, Cu - кучевые, Cb - кучево-дождевые. Подробнее классификацию облаков см. в Атласе облаков (PDF).
T - Температура воздуха - температура, измеренная на высоте 2 м над землей.
Td - Температура точки росы - температура, при понижении до которой содержащийся в воздухе водяной пар достигнет насыщения.
f - Относительная влажность воздуха - влажноcть воздуха, измеренная на высоте 2 м над землей.
Te - Эффективная температура - температура, которую ощущает одетый по сезону человек в тени. Характеристика душности погоды. При расчете учитывается влияние влажности воздуха и скорости ветра на теплоощущения человека.
Tes - Эффективная температура на солнце - температура, которую ощущает человек, с поправкой на солнечный нагрев. Характеристика знойности погоды. Зависит от высоты солнца над горизонтом, облачности и скорости ветра. Ночью, в пасмурную погоду, а также при ветре 12 м/с и более поправка равна нулю.
P - Атмосферное давление - приведенное к уровню моря атмосферное давление.
Po - Атмосферное давление - измеренное на уровне метеостанции атмосферное давление.
Tmin - Минимальная температура - минимум температуры воздуха на высоте 2 м над землей.
Tmax - Максимальная температура - максимум температуры воздуха на высоте 2 м над землей.
R - Количество осадков - Количество выпавших осадков за период времени, мм. При наведении курсора мыши на число - период времени, за который выпало указанное количество осадков.
R24 - Количество осадков - Количество выпавших осадков за 24 часа, мм.
S - Снежный покров - Высота снежного покрова, см. При наведении курсора мыши на число - состояние снежного покрова и степень покрытия местности в баллах.